User: anonymous   Login
Location: Vancouver
(49.2500°N, 123.1330°W)
Time: 16:10:23
(UTC-08:00)
Language:

H-2A R/B - Orbit

View from above orbital plane
View from above orbital plane
View from above satellite
View from above satellite

Ground track
Ground track

The orbit data is extracted from the following two-line orbital elements,

1 27601U 02056E   17017.68118532  .00000033  00000-0  27480-4 0  9990
2 27601  98.3959  90.5470 0072511  22.5831 128.4250 14.31758452736270
Epoch (UTC): 17 January 2017 16:20:54
Eccentricity: 0.0072511
inclination: 98.3959°
perigee height: 734 km
apogee height: 838 km
right ascension of ascending node: 90.5470°
argument of perigee: 22.5831°
revolutions per day: 14.31758452
mean anomaly at epoch: 128.4250°
orbit number at epoch: 73627

The dashed part of the orbit path shows where the satellite is in the earth's shadow,  

DLR